Flag for Egypt Weather past 2 weeks in Port Said, Egypt

Now
72 °F

Scattered clouds.


Feels Like: 74 °F
Forecast: 69 / 79 °F
Wind: 9 mph from Southwest

Location: Port Said Airport

Current Time: Jun 2, 2015 at 7:41:12 AM

Latest Report: Jun 2, 2015 at 7:00 AM


Visibility: N/A

Pressure: 29.89 "Hg

Humidity: 73%

Dew point: 63 °F

Location of Port SaidLocation

Historic Weather in Port Said — Graph

°F

Port Said temperature yesterday

Maximum temperature yesterday: 77 °F (at 1:00 PM)
Minimum temperature yesterday: 66 °F (at 5:00 AM)
Average temperature yesterday: 72 °F

Past Weeks' High & Low Weather Summary

 TemperatureHumidityPressure
High109 °F (May 27, 2:00 PM)94% (May 22, 3:00 PM)30.01 "Hg (May 22, 3:00 PM)
Low63 °F (May 25, 3:00 AM)17% (May 27, 2:00 PM)29.65 "Hg (May 27, 2:00 PM)
Average75 °F70%29.88 "Hg
* Reported May 18 6:00 AM — Jun 2 6:00 AM, Port Said, Weather by CustomWeather, © 2015

Note: Actual official high and low records may vary slightly from our data, if they occured in-between our weather recording intervals... More about our weather records

Advertising

Port Said weather history for previous 24 hours

 ConditionsComfort  
Time TempWeatherWind HumidityBarometerVisibility
6:00 AM
Tue, Jun 2
70 °FScattered clouds.5 mph78%29.89 "HgN/A
5:00 AM70 °FScattered clouds.5 mph73%29.86 "HgN/A
4:00 AM70 °FClear.6 mph73%29.89 "Hg10 mi
3:00 AM72 °FClear.6 mph69%29.89 "Hg10 mi
2:00 AM72 °FClear.7 mph69%29.89 "Hg10 mi
1:00 AM72 °FClear.8 mph69%29.89 "Hg10 mi
12:00 AM72 °FClear.8 mph69%29.89 "Hg10 mi
11:00 PM
Mon, Jun 1
72 °FClear.8 mph69%29.92 "Hg10 mi
10:00 PM72 °FClear.7 mph69%29.92 "Hg10 mi
9:00 PM72 °FClear.8 mph73%29.89 "Hg10 mi
8:00 PM72 °FPassing clouds.8 mph69%29.89 "HgN/A
7:00 PM72 °FPassing clouds.9 mph73%29.89 "HgN/A
6:00 PM73 °FPassing clouds.7 mph65%29.89 "HgN/A
5:00 PM73 °FSunny.9 mph65%29.86 "Hg10 mi
4:00 PM75 °FSunny.9 mph61%29.86 "Hg10 mi
3:00 PM77 °FSunny.7 mph57%29.89 "Hg10 mi
2:00 PM77 °FSunny.5 mph51%29.89 "Hg10 mi
1:00 PM77 °FSunny.7 mph51%29.89 "Hg10 mi
12:00 PM75 °FPassing clouds.7 mph54%29.92 "HgN/A
11:00 AM75 °FPassing clouds.5 mph54%29.92 "HgN/A
10:00 AM73 °FScattered clouds.5 mph57%29.92 "HgN/A
9:00 AM73 °FScattered clouds.5 mph57%29.92 "HgN/A
8:00 AM73 °FPassing clouds.7 mph57%29.92 "HgN/A
7:00 AM73 °FPassing clouds.7 mph53%29.92 "HgN/A
Weather by CustomWeather, © 2015

See weather overviewHow to use our weather pages